EW3845 Weather Reports


Display with metric or nautical units.
time (UTC)temp
F
wind
direction
speed
MPH
gust
MPH
rain 1hr
in
rain 24hr
in
rain mn
in
humidity
%
barometer
mb
20240530003034 58 360 0.0 0.0 0.00 0.32 0.00 93 1005.6
20240530001533 58 360 0.0 0.0 0.00 0.32 0.00 93 1005.7
20240530000031 58 360 0.0 0.0 0.00 0.32 0.00 93 1005.8
20240529234550 59 360 0.0 0.0 0.00 0.32 0.00 93 1006.0
20240529233028 58 360 0.0 0.0 0.00 0.32 0.00 93 1006.2
20240529231527 59 360 0.0 0.0 0.00 0.32 0.00 92 1006.3
20240529230025 59 360 0.0 0.0 0.00 0.32 0.00 92 1006.4
20240529224526 59 360 0.0 0.0 0.00 0.32 0.00 92 1006.4
20240529223022 59 360 0.0 0.0 0.00 0.32 0.00 92 1006.4
20240529221521 59 360 0.0 0.0 0.00 0.32 0.00 91 1006.7
20240529220018 60 360 0.0 0.0 0.00 0.32 0.32 91 1006.7
20240529214517 60 360 0.0 0.0 0.00 0.32 0.32 90 1006.7
20240529213016 60 360 0.0 0.0 0.00 0.32 0.32 90 1007.0
20240529211516 60 360 0.0 0.0 0.00 0.32 0.32 89 1007.1
20240529210016 59 360 0.0 0.0 0.00 0.32 0.32 88 1007.0
20240529204519 60 360 0.0 0.0 0.00 0.32 0.32 87 1007.0
20240529203022 60 360 0.0 0.0 0.00 0.32 0.32 86 1007.2
20240529201512 61 360 0.0 0.0 0.00 0.32 0.32 86 1007.3
20240529200012 61 360 0.0 0.0 0.00 0.33 0.32 85 1007.2
20240529194511 61 360 0.0 0.0 0.00 0.33 0.32 84 1007.2
20240529193010 62 360 0.0 0.0 0.00 0.33 0.32 83 1007.2
20240529191611 62 360 0.0 0.0 0.00 0.33 0.32 82 1007.2
20240529190021 62 360 0.0 0.0 0.00 0.34 0.32 81 1007.1
20240529184508 63 360 0.0 0.0 0.00 0.34 0.32 82 1007.2
20240529183021 63 360 0.0 0.0 0.00 0.34 0.32 80 1007.3
20240529181508 64 360 0.0 0.0 0.00 0.34 0.32 80 1007.3
20240529180009 64 360 0.0 0.0 0.00 0.35 0.32 81 1007.5
20240529174506 64 360 0.0 0.0 0.00 0.35 0.32 82 1007.5
20240529173004 64 360 0.0 0.0 0.00 0.35 0.32 83 1007.5
20240529171510 64 360 0.0 0.0 0.00 0.35 0.32 87 1007.5
20240529170005 63 360 0.0 0.0 0.00 0.39 0.32 87 1007.6
20240529165041 63 360 0.0 0.0 0.00 1.97 0.32 87 1007.6
20240529164614 63 360 0.0 0.0 0.00 1.97 0.32 87 1007.7
20240529164041 63 360 0.0 0.0 0.00 1.97 0.32 87 1007.7
20240529163554 64 360 0.0 0.0 0.00 1.97 0.32 87 1007.7
20240529163102 64 360 0.0 0.0 0.00 1.97 0.32 87 1007.7
20240529163014 63 360 0.0 0.0 0.00 0.39 0.32 87 1007.6
20240529162611 64 360 0.0 0.0 0.00 1.97 0.32 87 1007.7
20240529162118 64 360 0.0 0.0 0.00 1.97 0.32 87 1007.8
20240529161549 64 360 0.0 0.0 0.00 1.97 0.32 87 1007.7
20240529161501 64 360 0.0 0.0 0.00 0.39 0.32 87 1007.6
20240529161059 64 360 0.0 0.0 0.00 1.97 0.32 87 1007.8
20240529160551 64 360 0.0 0.0 0.00 1.97 0.32 87 1007.7
20240529160200 64 360 0.0 0.0 0.00 0.39 0.32 87 1007.7
20240529160059 64 360 0.0 0.0 0.00 2.05 0.32 87 1007.8
20240529155551 64 360 0.0 0.0 0.00 2.05 0.32 87 1007.8
20240529155055 64 282 0.0 0.0 0.00 2.05 0.32 87 1007.9
20240529154546 64 287 0.0 0.0 0.00 2.05 0.32 87 1007.8
20240529154054 64 360 0.0 0.0 0.00 2.05 0.32 87 1007.8
20240529153548 64 291 0.0 0.0 0.00 2.05 0.32 88 1007.8
20240529153158 63 360 0.0 0.0 0.00 0.41 0.32 90 1007.7
20240529153056 63 286 0.0 0.0 0.00 2.05 0.32 90 1007.8
20240529152548 63 360 0.0 0.0 0.00 2.05 0.32 90 1007.8
20240529152056 63 290 0.0 0.0 0.00 2.05 0.32 90 1007.9
20240529151651 62 288 0.0 0.0 0.00 0.41 0.32 90 1007.8
20240529151549 63 285 0.0 0.0 0.00 2.05 0.32 90 1007.9
20240529151057 63 290 0.0 0.0 0.00 2.05 0.32 91 1008.0
20240529150620 63 286 0.0 0.0 0.00 2.05 0.32 92 1008.0
20240529150013 63 286 0.0 0.0 0.00 0.41 0.32 92 1008.0
20240529144511 62 284 0.0 0.0 0.00 0.41 0.32 92 1008.0
20240529143011 63 360 0.0 0.0 0.06 0.41 0.32 93 1008.1
20240529141510 63 251 0.0 0.0 0.12 0.41 0.32 93 1008.3
20240529140015 62 360 0.0 0.0 0.13 0.41 0.32 93 1008.4
20240529134510 62 288 0.0 0.0 0.18 0.41 0.32 93 1008.6
20240529133025 61 288 0.0 0.0 0.13 0.33 0.24 91 1008.9
20240529131507 61 360 0.0 0.0 0.09 0.28 0.20 91 1008.9
20240529130007 62 294 0.0 0.0 0.06 0.27 0.18 86 1008.8
20240529124506 65 294 0.0 0.0 0.02 0.23 0.14 84 1008.4
20240529123010 66 150 0.0 0.0 0.00 0.20 0.12 79 1008.4
20240529121504 66 154 0.0 0.0 0.00 0.20 0.12 83 1008.4
20240529120001 65 291 0.0 0.0 0.00 0.20 0.12 86 1008.7
20240529114601 64 287 0.0 0.0 0.00 0.20 0.12 88 1008.9
20240529113101 64 297 0.0 0.0 0.00 0.20 0.12 82 1009.3
20240529111601 65 293 0.0 0.0 0.00 0.20 0.12 79 1009.1
20240529110103 66 290 0.0 0.0 0.00 0.20 0.12 80 1009.2
20240529104555 64 360 0.0 0.0 0.00 0.20 0.12 85 1009.2
20240529103100 63 360 0.0 0.0 0.00 0.20 0.12 84 1009.6
20240529101551 64 288 0.0 0.0 0.00 0.20 0.12 79 1009.7
20240529100050 66 360 0.0 0.0 0.00 0.20 0.12 79 1009.8
20240529094553 64 283 0.0 0.0 0.00 0.20 0.12 84 1009.9
20240529093044 62 360 0.0 0.0 0.00 0.20 0.12 88 1010.0
20240529091557 61 286 0.0 0.0 0.01 0.20 0.12 88 1010.0
20240529090041 60 259 0.0 0.0 0.01 0.20 0.12 92 1010.0
20240529084536 60 282 0.0 0.0 0.01 0.20 0.12 92 1010.0
20240529083039 60 296 0.0 0.0 0.01 0.20 0.12 94 1010.1
20240529081537 59 300 0.0 0.0 0.00 0.20 0.11 94 1010.2
20240529080035 59 290 0.0 0.0 0.00 0.20 0.11 94 1010.1
20240529074535 59 289 0.0 0.0 0.00 0.20 0.11 94 1010.0
20240529073032 59 287 0.0 0.0 0.00 0.20 0.11 94 1010.2
20240529071532 59 246 0.0 0.0 0.00 0.20 0.11 94 1010.2
20240529070031 59 360 0.0 0.0 0.00 0.20 0.11 94 1010.1
20240529064544 60 252 0.0 0.0 0.00 0.20 0.11 95 1010.1
20240529063030 59 233 0.0 0.0 0.00 0.20 0.11 95 1010.1
20240529061533 58 290 0.0 0.0 0.00 0.20 0.11 94 1010.3
20240529060032 58 230 0.0 0.0 0.01 0.20 0.11 94 1010.5
20240529054526 58 140 0.0 0.0 0.02 0.20 0.11 94 1010.4
20240529053033 58 150 0.0 0.0 0.03 0.20 0.11 94 1010.5
20240529051525 58 165 0.0 0.0 0.03 0.20 0.11 94 1010.5
20240529050027 58 177 0.0 0.0 0.05 0.19 0.10 93 1010.4
20240529044535 58 246 0.0 0.0 0.02 0.17 0.08 93 1010.4
20240529043022 58 140 0.0 0.0 0.03 0.17 0.08 93 1010.6
20240529041530 58 86 0.0 0.0 0.07 0.17 0.08 92 1010.6
20240529040023 58 170 0.0 0.0 0.06 0.14 0.06 92 1010.7
20240529035012 59 163 0.0 0.0 0.06 0.14 0.06 91 1010.9
20240529030645 60 217 0.0 0.0 0.00 0.09 0.00 88 1011.0
20240529022736 59 157 0.0 0.0 0.00 0.09 0.00 90 1011.4
20240529015049 59 154 0.0 0.0 0.00 0.09 0.00 90 1011.7
20240529011002 59 154 0.0 0.0 0.00 0.10 0.00 91 1012.2
20240529003117 59 155 0.0 0.0 0.00 0.10 0.00 92 1012.9